Location: Kervinic
(48.4279°N, 4.7373°W)
Time: 09:45:16
(UTC+00:00)

STARLINK-1243 - Pass Details

Date: 09 April 2020
Orbit: 549 x 550 km, 53.0° (Epoch: 07 June)

Event Time Altitude Azimuth Distance (km) Brightness Sun altitude
Rises 20:59:27 0° 295° (WNW) 2,727 8.7 -18.4°
Reaches altitude 10° 21:01:41 10° 294° (WNW) 1,831 7.4 -18.7°
Maximum altitude 21:05:49 70° 211° (SSW) 589 3.6 -19.3°
Enters shadow 21:06:43 51° 149° (SSE) 696 3.7 -19.4°
